Time,TemperatureF,DewpointF,PressureIn,WindDirection,WindDirectionDegrees,WindSpeedMPH,WindSpeedGustMPH,Humidity,HourlyPrecipIn,Conditions,Clouds,dailyrainin,SoftwareType,DateUTC
2013-06-26 00:01:00,66.1,62.8,29.84,NW,309,0.0,0.0,89,0.00,,,0.00,Wunderground v.1.15,2013-06-26 04:01:00,
2013-06-26 00:02:00,66.1,62.8,29.84,WNW,291,0.0,0.0,89,0.00,,,0.00,Wunderground v.1.15,2013-06-26 04:02:00,
2013-06-26 00:07:00,66.1,62.8,29.84,NW,308,0.0,0.0,89,0.00,,,0.00,Wunderground v.1.15,2013-06-26 04:07:00,
2013-06-26 00:12:00,66.1,62.8,29.84,NW,309,0.0,0.0,89,0.00,,,0.00,Wunderground v.1.15,2013-06-26 04:12:00,
2013-06-26 00:17:00,66.1,62.8,29.84,NW,309,0.0,0.0,89,0.00,,,0.00,Wunderground v.1.15,2013-06-26 04:17:00,
2013-06-26 00:25:00,66.0,63.0,29.84,NW,309,0.0,0.0,90,0.00,,,0.00,Wunderground v.1.15,2013-06-26 04:25:00,
2013-06-26 00:31:00,66.0,62.7,29.85,SE,141,0.0,0.0,89,0.00,,,0.00,Wunderground v.1.15,2013-06-26 04:31:00,
2013-06-26 00:37:00,65.8,62.5,29.85,SE,140,0.0,0.0,89,0.00,,,0.00,Wunderground v.1.15,2013-06-26 04:37:00,
2013-06-26 00:42:00,65.8,62.8,29.85,SE,141,0.0,0.0,90,0.00,,,0.00,Wunderground v.1.15,2013-06-26 04:42:00,
2013-06-26 00:47:00,65.8,62.8,29.85,SE,141,0.0,0.0,90,0.00,,,0.00,Wunderground v.1.15,2013-06-26 04:47:00,
2013-06-26 00:55:00,65.8,62.8,29.85,SE,138,0.0,0.0,90,0.00,,,0.00,Wunderground v.1.15,2013-06-26 04:55:00,
2013-06-26 01:01:00,65.8,62.8,29.85,SE,140,0.0,0.0,90,0.00,,,0.00,Wunderground v.1.15,2013-06-26 05:01:00,
2013-06-26 01:06:00,65.8,62.8,29.85,SE,141,0.0,0.0,90,0.00,,,0.00,Wunderground v.1.15,2013-06-26 05:06:00,
2013-06-26 01:12:00,65.8,62.8,29.85,SE,141,0.0,0.0,90,0.00,,,0.00,Wunderground v.1.15,2013-06-26 05:12:00,
2013-06-26 01:18:00,65.8,62.8,29.85,SE,137,0.0,0.0,90,0.00,,,0.00,Wunderground v.1.15,2013-06-26 05:18:00,
2013-06-26 01:25:00,66.0,63.0,29.85,SE,140,0.0,0.0,90,0.00,,,0.00,Wunderground v.1.15,2013-06-26 05:25:00,
2013-06-26 01:31:00,66.0,63.0,29.84,SE,140,0.0,0.0,90,0.00,,,0.00,Wunderground v.1.15,2013-06-26 05:31:00,
2013-06-26 01:38:00,65.8,63.1,29.84,SE,138,0.0,0.0,91,0.00,,,0.00,Wunderground v.1.15,2013-06-26 05:38:00,
2013-06-26 01:49:00,65.8,63.1,29.84,SE,138,0.0,0.0,91,0.00,,,0.00,Wunderground v.1.15,2013-06-26 05:49:00,
2013-06-26 01:57:00,65.8,63.1,29.84,SE,140,0.0,0.0,91,0.00,,,0.00,Wunderground v.1.15,2013-06-26 05:57:00,
2013-06-26 02:02:00,65.8,63.1,29.84,SE,140,0.0,0.0,91,0.00,,,0.00,Wunderground v.1.15,2013-06-26 06:02:00,
2013-06-26 02:08:00,65.6,62.9,29.84,SE,141,0.0,0.0,91,0.00,,,0.00,Wunderground v.1.15,2013-06-26 06:08:00,
2013-06-26 02:17:00,65.3,62.6,29.84,SE,138,0.0,0.0,91,0.00,,,0.00,Wunderground v.1.15,2013-06-26 06:17:00,
2013-06-26 02:26:00,65.3,62.6,29.84,SE,138,0.0,0.0,91,0.00,,,0.00,Wunderground v.1.15,2013-06-26 06:26:00,
2013-06-26 02:32:00,65.2,62.5,29.83,SE,140,0.0,0.0,91,0.00,,,0.00,Wunderground v.1.15,2013-06-26 06:32:00,
2013-06-26 02:38:00,65.3,62.6,29.83,SE,137,0.0,0.0,91,0.00,,,0.00,Wunderground v.1.15,2013-06-26 06:38:00,
2013-06-26 02:47:00,65.3,62.6,29.83,SE,138,0.0,0.0,91,0.00,,,0.00,Wunderground v.1.15,2013-06-26 06:47:00,
2013-06-26 02:57:00,65.3,62.9,29.83,SE,138,0.0,0.0,92,0.00,,,0.00,Wunderground v.1.15,2013-06-26 06:57:00,
2013-06-26 03:02:00,65.5,63.1,29.84,SE,138,0.0,0.0,92,0.00,,,0.00,Wunderground v.1.15,2013-06-26 07:02:00,
2013-06-26 03:07:00,65.5,63.1,29.84,SE,137,0.0,0.0,92,0.00,,,0.00,Wunderground v.1.15,2013-06-26 07:07:00,
2013-06-26 03:14:00,65.5,63.1,29.84,SE,137,0.0,0.0,92,0.00,,,0.00,Wunderground v.1.15,2013-06-26 07:14:00,
2013-06-26 03:20:00,65.5,63.1,29.84,SE,140,0.0,0.0,92,0.00,,,0.00,Wunderground v.1.15,2013-06-26 07:20:00,
2013-06-26 03:27:00,65.5,63.1,29.84,SE,136,0.0,0.0,92,0.00,,,0.00,Wunderground v.1.15,2013-06-26 07:27:00,
2013-06-26 03:36:00,65.5,63.1,29.86,SE,141,1.0,3.0,92,0.00,,,0.00,Wunderground v.1.15,2013-06-26 07:36:00,
2013-06-26 03:42:00,65.5,62.8,29.86,South,184,0.0,1.0,91,0.00,,,0.00,Wunderground v.1.15,2013-06-26 07:42:00,
2013-06-26 03:54:00,65.3,62.6,29.85,SSW,206,0.0,0.0,91,0.00,,,0.00,Wunderground v.1.15,2013-06-26 07:54:00,
2013-06-26 03:59:00,65.3,62.6,29.85,SSW,206,0.0,0.0,91,0.00,,,0.00,Wunderground v.1.15,2013-06-26 07:59:00,
2013-06-26 04:05:00,65.3,62.6,29.84,SSW,205,0.0,0.0,91,0.00,,,0.00,Wunderground v.1.15,2013-06-26 08:05:00,
2013-06-26 04:11:00,65.2,62.5,29.84,SSW,209,0.0,0.0,91,0.00,,,0.00,Wunderground v.1.15,2013-06-26 08:11:00,
2013-06-26 04:17:00,65.3,62.6,29.84,SSW,209,0.0,0.0,91,0.00,,,0.00,Wunderground v.1.15,2013-06-26 08:17:00,
2013-06-26 04:25:00,65.3,62.6,29.84,SSW,208,0.0,0.0,91,0.00,,,0.00,Wunderground v.1.15,2013-06-26 08:25:00,
2013-06-26 04:31:00,65.2,62.5,29.84,SSW,202,0.0,0.0,91,0.00,,,0.00,Wunderground v.1.15,2013-06-26 08:31:00,
2013-06-26 04:36:00,65.2,62.5,29.84,SSW,200,0.0,0.0,91,0.00,,,0.00,Wunderground v.1.15,2013-06-26 08:36:00,
2013-06-26 04:42:00,65.3,62.6,29.84,SSW,198,0.0,0.0,91,0.00,,,0.00,Wunderground v.1.15,2013-06-26 08:42:00,
2013-06-26 04:47:00,65.3,62.6,29.84,SSW,199,0.0,0.0,91,0.00,,,0.00,Wunderground v.1.15,2013-06-26 08:47:00,
2013-06-26 04:56:00,65.3,62.6,29.84,SSW,199,0.0,0.0,91,0.00,,,0.00,Wunderground v.1.15,2013-06-26 08:56:00,
2013-06-26 05:02:00,65.3,62.6,29.85,SSW,206,0.0,0.0,91,0.00,,,0.00,Wunderground v.1.15,2013-06-26 09:02:00,
2013-06-26 05:08:00,65.2,62.5,29.85,SSW,208,0.0,0.0,91,0.00,,,0.00,Wunderground v.1.15,2013-06-26 09:08:00,
2013-06-26 05:15:00,65.2,62.5,29.85,SSW,208,0.0,0.0,91,0.00,,,0.00,Wunderground v.1.15,2013-06-26 09:15:00,
2013-06-26 05:20:00,65.2,62.5,29.85,SSW,208,0.0,0.0,91,0.00,,,0.00,Wunderground v.1.15,2013-06-26 09:20:00,
2013-06-26 05:26:00,65.2,62.5,29.85,SSW,202,0.0,0.0,91,0.00,,,0.00,Wunderground v.1.15,2013-06-26 09:26:00,
2013-06-26 05:32:00,65.0,62.3,29.84,SSW,202,0.0,0.0,91,0.00,,,0.00,Wunderground v.1.15,2013-06-26 09:32:00,
2013-06-26 05:37:00,65.2,62.5,29.84,SSW,195,0.0,0.0,91,0.00,,,0.00,Wunderground v.1.15,2013-06-26 09:37:00,
2013-06-26 05:47:00,65.2,62.5,29.84,SSW,208,0.0,0.0,91,0.00,,,0.00,Wunderground v.1.15,2013-06-26 09:47:00,
2013-06-26 05:52:00,65.2,62.5,29.84,SSW,203,0.0,0.0,91,0.00,,,0.00,Wunderground v.1.15,2013-06-26 09:52:00,
2013-06-26 05:57:00,65.2,62.5,29.84,SSW,202,0.0,0.0,91,0.00,,,0.00,Wunderground v.1.15,2013-06-26 09:57:00,
2013-06-26 06:06:00,65.0,62.3,29.84,SSW,205,0.0,0.0,91,0.00,,,0.00,Wunderground v.1.15,2013-06-26 10:06:00,
2013-06-26 06:12:00,65.0,62.3,29.84,SSW,208,0.0,0.0,91,0.00,,,0.00,Wunderground v.1.15,2013-06-26 10:12:00,
2013-06-26 06:17:00,65.0,62.3,29.84,SSW,206,0.0,0.0,91,0.00,,,0.00,Wunderground v.1.15,2013-06-26 10:17:00,
2013-06-26 06:25:00,65.0,62.3,29.84,SSW,202,0.0,0.0,91,0.00,,,0.00,Wunderground v.1.15,2013-06-26 10:25:00,
2013-06-26 06:30:00,65.0,62.6,29.84,SSW,206,0.0,0.0,92,0.00,,,0.00,Wunderground v.1.15,2013-06-26 10:30:00,
2013-06-26 06:35:00,65.2,62.8,29.84,SSW,199,0.0,0.0,92,0.00,,,0.00,Wunderground v.1.15,2013-06-26 10:35:00,
2013-06-26 06:41:00,65.2,62.8,29.84,SSW,199,0.0,0.0,92,0.00,,,0.00,Wunderground v.1.15,2013-06-26 10:41:00,
2013-06-26 06:46:00,65.3,62.9,29.84,SSW,195,0.0,0.0,92,0.00,,,0.00,Wunderground v.1.15,2013-06-26 10:46:00,
2013-06-26 06:52:00,65.3,62.9,29.84,SSW,208,0.0,0.0,92,0.00,,,0.00,Wunderground v.1.15,2013-06-26 10:52:00,
2013-06-26 06:57:00,65.3,62.9,29.84,North,356,0.0,0.0,92,0.00,,,0.00,Wunderground v.1.15,2013-06-26 10:57:00,
2013-06-26 07:04:00,65.6,63.2,29.84,North,353,0.0,0.0,92,0.00,,,0.00,Wunderground v.1.15,2013-06-26 11:04:00,
2013-06-26 07:10:00,65.8,63.4,29.84,NNW,330,0.0,0.0,92,0.00,,,0.00,Wunderground v.1.15,2013-06-26 11:10:00,
2013-06-26 07:17:00,66.3,63.9,29.84,NNW,336,0.0,0.0,92,0.00,,,0.00,Wunderground v.1.15,2013-06-26 11:17:00,
2013-06-26 07:24:00,66.6,64.2,29.84,NW,313,0.0,0.0,92,0.00,,,0.00,Wunderground v.1.15,2013-06-26 11:24:00,
2013-06-26 07:30:00,66.9,64.5,29.84,NW,313,0.0,0.0,92,0.00,,,0.00,Wunderground v.1.15,2013-06-26 11:30:00,
2013-06-26 07:37:00,67.3,64.6,29.84,NW,312,0.0,1.0,91,0.00,,,0.00,Wunderground v.1.15,2013-06-26 11:37:00,
2013-06-26 07:44:00,67.4,64.7,29.84,North,357,0.0,0.0,91,0.00,,,0.00,Wunderground v.1.15,2013-06-26 11:44:00,
2013-06-26 07:50:00,67.8,65.1,29.84,North,357,0.0,0.0,91,0.00,,,0.00,Wunderground v.1.15,2013-06-26 11:50:00,
2013-06-26 07:56:00,68.1,65.1,29.84,SW,234,0.0,0.0,90,0.00,,,0.00,Wunderground v.1.15,2013-06-26 11:56:00,
2013-06-26 08:02:00,68.4,65.0,29.84,North,3,0.0,0.0,89,0.00,,,0.00,Wunderground v.1.15,2013-06-26 12:02:00,
2013-06-26 08:07:00,68.8,65.1,29.84,NNE,16,0.0,0.0,88,0.00,,,0.00,Wunderground v.1.15,2013-06-26 12:07:00,
2013-06-26 08:12:00,68.9,64.9,29.84,NNW,343,0.0,0.0,87,0.00,,,0.00,Wunderground v.1.15,2013-06-26 12:12:00,
2013-06-26 08:17:00,69.3,64.6,29.84,NNW,344,0.0,0.0,85,0.00,,,0.00,Wunderground v.1.15,2013-06-26 12:17:00,
2013-06-26 08:25:00,69.9,64.5,29.84,NNW,337,0.0,2.0,83,0.00,,,0.00,Wunderground v.1.15,2013-06-26 12:25:00,
2013-06-26 08:31:00,70.4,64.3,29.84,NNW,340,0.0,0.0,81,0.00,,,0.00,Wunderground v.1.15,2013-06-26 12:31:00,
2013-06-26 08:37:00,70.9,64.4,29.84,NNW,340,0.0,0.0,80,0.00,,,0.00,Wunderground v.1.15,2013-06-26 12:37:00,
2013-06-26 08:45:00,71.5,64.6,29.84,NNW,340,0.0,1.0,79,0.00,,,0.00,Wunderground v.1.15,2013-06-26 12:45:00,
2013-06-26 08:51:00,72.0,65.1,29.84,NNW,340,0.0,0.0,79,0.00,,,0.00,Wunderground v.1.15,2013-06-26 12:51:00,
2013-06-26 08:56:00,72.1,64.9,29.84,NNW,342,0.0,0.0,78,0.00,,,0.00,Wunderground v.1.15,2013-06-26 12:56:00,
2013-06-26 09:02:00,72.3,65.1,29.83,NNW,340,0.0,0.0,78,0.00,,,0.00,Wunderground v.1.15,2013-06-26 13:02:00,
2013-06-26 09:07:00,72.5,65.6,29.83,NNW,340,0.0,0.0,79,0.00,,,0.00,Wunderground v.1.15,2013-06-26 13:07:00,
2013-06-26 09:16:00,72.8,64.8,29.83,NNW,342,0.0,0.0,76,0.00,,,0.00,Wunderground v.1.15,2013-06-26 13:16:00,
2013-06-26 09:22:00,73.3,64.9,29.83,NNW,342,0.0,2.0,75,0.00,,,0.00,Wunderground v.1.15,2013-06-26 13:22:00,
2013-06-26 09:28:00,74.0,65.2,29.83,WNW,292,0.0,2.0,74,0.00,,,0.00,Wunderground v.1.15,2013-06-26 13:28:00,
2013-06-26 09:35:00,74.6,65.4,29.82,West,274,0.0,0.0,73,0.00,,,0.00,Wunderground v.1.15,2013-06-26 13:35:00,
2013-06-26 09:40:00,75.3,65.6,29.82,North,6,0.0,1.0,72,0.00,,,0.00,Wunderground v.1.15,2013-06-26 13:40:00,
2013-06-26 09:47:00,76.0,65.1,29.82,North,0,0.0,1.0,69,0.00,,,0.00,Wunderground v.1.15,2013-06-26 13:47:00,
2013-06-26 09:55:00,76.7,65.3,29.82,North,0,0.0,2.0,68,0.00,,,0.00,Wunderground v.1.15,2013-06-26 13:55:00,
2013-06-26 10:00:00,77.2,66.2,29.82,SSW,199,0.0,0.0,69,0.00,,,0.00,Wunderground v.1.15,2013-06-26 14:00:00,
2013-06-26 10:07:00,77.7,66.7,29.82,North,357,0.0,1.0,69,0.00,,,0.00,Wunderground v.1.15,2013-06-26 14:07:00,
2013-06-26 10:15:00,78.3,66.4,29.83,North,359,1.0,2.0,67,0.00,,,0.00,Wunderground v.1.15,2013-06-26 14:15:00,
2013-06-26 10:20:00,78.8,66.5,29.83,NNE,30,1.0,1.0,66,0.00,,,0.00,Wunderground v.1.15,2013-06-26 14:20:00,
2013-06-26 10:26:00,79.2,66.9,29.83,SW,232,1.0,3.0,66,0.00,,,0.00,Wunderground v.1.15,2013-06-26 14:26:00,
2013-06-26 10:32:00,79.6,66.8,29.82,North,4,0.0,1.0,65,0.00,,,0.00,Wunderground v.1.15,2013-06-26 14:32:00,
2013-06-26 10:38:00,79.8,67.4,29.82,North,0,0.0,1.0,66,0.00,,,0.00,Wunderground v.1.15,2013-06-26 14:38:00,
2013-06-26 10:46:00,80.3,67.9,29.81,East,79,1.0,1.0,66,0.00,,,0.00,Wunderground v.1.15,2013-06-26 14:46:00,
2013-06-26 10:52:00,80.9,68.9,29.81,North,0,1.0,2.0,67,0.00,,,0.00,Wunderground v.1.15,2013-06-26 14:52:00,
2013-06-26 10:58:00,81.4,69.4,29.81,WNW,294,1.0,2.0,67,0.00,,,0.00,Wunderground v.1.15,2013-06-26 14:58:00,
2013-06-26 11:06:00,81.8,67.5,29.81,WNW,292,1.0,1.0,62,0.00,,,0.00,Wunderground v.1.15,2013-06-26 15:06:00,
2013-06-26 11:12:00,82.0,68.6,29.81,West,260,1.0,1.0,64,0.00,,,0.00,Wunderground v.1.15,2013-06-26 15:12:00,
2013-06-26 11:17:00,82.4,68.5,29.81,North,10,0.0,1.0,63,0.00,,,0.00,Wunderground v.1.15,2013-06-26 15:17:00,
2013-06-26 11:24:00,83.0,69.1,29.81,North,359,0.0,1.0,63,0.00,,,0.00,Wunderground v.1.15,2013-06-26 15:24:00,
2013-06-26 11:30:00,83.2,68.8,29.81,NNE,20,0.0,0.0,62,0.00,,,0.00,Wunderground v.1.15,2013-06-26 15:30:00,
2013-06-26 11:37:00,83.2,69.3,29.81,North,3,0.0,3.0,63,0.00,,,0.00,Wunderground v.1.15,2013-06-26 15:37:00,
2013-06-26 11:44:00,83.0,69.6,29.81,North,349,0.0,1.0,64,0.00,,,0.00,Wunderground v.1.15,2013-06-26 15:44:00,
2013-06-26 11:50:00,82.8,69.4,29.81,North,349,0.0,0.0,64,0.00,,,0.00,Wunderground v.1.15,2013-06-26 15:50:00,
2013-06-26 11:57:00,82.6,69.6,29.81,North,0,0.0,0.0,65,0.00,,,0.00,Wunderground v.1.15,2013-06-26 15:57:00,
2013-06-26 12:04:00,82.6,69.6,29.81,West,268,0.0,0.0,65,0.00,,,0.00,Wunderground v.1.15,2013-06-26 16:04:00,
2013-06-26 12:10:00,82.8,68.9,29.81,WNW,295,0.0,0.0,63,0.00,,,0.00,Wunderground v.1.15,2013-06-26 16:10:00,
2013-06-26 12:17:00,83.4,69.0,29.81,North,6,0.0,0.0,62,0.00,,,0.00,Wunderground v.1.15,2013-06-26 16:17:00,
2013-06-26 12:22:00,83.4,68.5,29.81,North,6,1.0,2.0,61,0.00,,,0.00,Wunderground v.1.15,2013-06-26 16:22:00,
2013-06-26 12:28:00,83.6,70.1,29.81,North,4,1.0,2.0,64,0.00,,,0.00,Wunderground v.1.15,2013-06-26 16:28:00,
2013-06-26 12:36:00,84.1,70.1,29.81,North,10,1.0,1.0,63,0.00,,,0.00,Wunderground v.1.15,2013-06-26 16:36:00,
2013-06-26 12:42:00,84.3,70.8,29.81,North,6,1.0,3.0,64,0.00,,,0.00,Wunderground v.1.15,2013-06-26 16:42:00,
2013-06-26 12:48:00,84.5,70.0,29.81,North,6,1.0,3.0,62,0.00,,,0.00,Wunderground v.1.15,2013-06-26 16:48:00,
2013-06-26 12:57:00,85.1,70.1,29.81,NNE,14,2.0,2.0,61,0.00,,,0.00,Wunderground v.1.15,2013-06-26 16:57:00,
2013-06-26 13:05:00,85.5,71.5,29.81,North,0,1.0,2.0,63,0.00,,,0.00,Wunderground v.1.15,2013-06-26 17:05:00,
2013-06-26 13:11:00,85.9,70.9,29.81,North,6,1.0,3.0,61,0.00,,,0.00,Wunderground v.1.15,2013-06-26 17:11:00,
2013-06-26 13:17:00,86.5,72.4,29.80,SW,234,1.0,3.0,63,0.00,,,0.00,Wunderground v.1.15,2013-06-26 17:17:00,
2013-06-26 13:22:00,87.2,71.1,29.80,NNE,31,1.0,1.0,59,0.00,,,0.00,Wunderground v.1.15,2013-06-26 17:22:00,
2013-06-26 13:28:00,88.0,71.9,29.80,NNE,30,0.0,1.0,59,0.00,,,0.00,Wunderground v.1.15,2013-06-26 17:28:00,
2013-06-26 13:36:00,88.0,70.9,29.79,North,357,0.0,1.0,57,0.00,,,0.00,Wunderground v.1.15,2013-06-26 17:36:00,
2013-06-26 13:42:00,87.2,71.1,29.79,North,356,1.0,1.0,59,0.00,,,0.00,Wunderground v.1.15,2013-06-26 17:42:00,
2013-06-26 13:47:00,87.0,71.4,29.79,North,356,1.0,1.0,60,0.00,,,0.00,Wunderground v.1.15,2013-06-26 17:47:00,
2013-06-26 13:55:00,87.0,71.4,29.79,North,357,0.0,1.0,60,0.00,,,0.00,Wunderground v.1.15,2013-06-26 17:55:00,
2013-06-26 14:01:00,87.4,71.8,29.79,North,0,0.0,2.0,60,0.00,,,0.00,Wunderground v.1.15,2013-06-26 18:01:00,
2013-06-26 14:06:00,88.0,72.4,29.79,North,0,1.0,2.0,60,0.00,,,0.00,Wunderground v.1.15,2013-06-26 18:06:00,
2013-06-26 14:11:00,88.4,70.2,29.79,North,349,1.0,1.0,55,0.00,,,0.00,Wunderground v.1.15,2013-06-26 18:11:00,
2013-06-26 14:17:00,89.0,70.2,29.77,West,280,1.0,1.0,54,0.00,,,0.00,Wunderground v.1.15,2013-06-26 18:17:00,
2013-06-26 14:22:00,89.5,70.1,29.77,North,0,0.0,2.0,53,0.00,,,0.00,Wunderground v.1.15,2013-06-26 18:22:00,
2013-06-26 14:27:00,88.8,70.0,29.77,NNW,332,1.0,2.0,54,0.00,,,0.00,Wunderground v.1.15,2013-06-26 18:27:00,
2013-06-26 14:35:00,89.3,72.6,29.77,North,0,0.0,6.0,58,0.00,,,0.00,Wunderground v.1.15,2013-06-26 18:35:00,
2013-06-26 14:41:00,89.7,70.8,29.77,NE,54,1.0,1.0,54,0.00,,,0.00,Wunderground v.1.15,2013-06-26 18:41:00,
2013-06-26 14:47:00,89.7,69.7,29.78,North,0,1.0,2.0,52,0.00,,,0.00,Wunderground v.1.15,2013-06-26 18:47:00,
2013-06-26 14:55:00,89.7,69.2,29.78,ENE,58,2.0,6.0,51,0.00,,,0.00,Wunderground v.1.15,2013-06-26 18:55:00,
2013-06-26 15:01:00,89.5,68.4,29.77,North,356,1.0,6.0,50,0.00,,,0.00,Wunderground v.1.15,2013-06-26 19:01:00,
2013-06-26 15:06:00,89.5,68.4,29.77,NE,54,2.0,10.0,50,0.00,,,0.00,Wunderground v.1.15,2013-06-26 19:06:00,
2013-06-26 15:12:00,89.7,69.7,29.77,North,0,2.0,2.0,52,0.00,,,0.00,Wunderground v.1.15,2013-06-26 19:12:00,
2013-06-26 15:17:00,89.7,68.6,29.77,North,0,1.0,2.0,50,0.00,,,0.00,Wunderground v.1.15,2013-06-26 19:17:00,
2013-06-26 15:22:00,89.5,67.8,29.77,NNE,24,2.0,4.0,49,0.00,,,0.00,Wunderground v.1.15,2013-06-26 19:22:00,
2013-06-26 15:27:00,89.3,69.4,29.77,NNE,31,2.0,4.0,52,0.00,,,0.00,Wunderground v.1.15,2013-06-26 19:27:00,
2013-06-26 15:36:00,89.5,66.6,29.75,North,354,1.0,2.0,47,0.00,,,0.00,Wunderground v.1.15,2013-06-26 19:36:00,
2013-06-26 15:41:00,89.7,65.5,29.75,East,82,2.0,4.0,45,0.00,,,0.00,Wunderground v.1.15,2013-06-26 19:41:00,
2013-06-26 15:47:00,89.5,67.8,29.76,WNW,298,1.0,4.0,49,0.00,,,0.00,Wunderground v.1.15,2013-06-26 19:47:00,
2013-06-26 15:58:00,87.8,66.8,29.76,NNE,23,1.0,3.0,50,0.00,,,0.00,Wunderground v.1.15,2013-06-26 19:58:00,
2013-06-26 16:05:00,87.0,66.1,29.75,North,0,2.0,3.0,50,0.00,,,0.00,Wunderground v.1.15,2013-06-26 20:05:00,
2013-06-26 16:11:00,86.3,65.5,29.75,NNW,337,1.0,3.0,50,0.00,,,0.00,Wunderground v.1.15,2013-06-26 20:11:00,
2013-06-26 16:18:00,85.7,66.6,29.75,NE,34,1.0,5.0,53,0.00,,,0.00,Wunderground v.1.15,2013-06-26 20:18:00,
2013-06-26 16:25:00,84.9,65.9,29.75,NNE,13,1.0,5.0,53,0.00,,,0.00,Wunderground v.1.15,2013-06-26 20:25:00,
2013-06-26 16:30:00,84.7,67.3,29.76,NNW,340,2.0,2.0,56,0.00,,,0.00,Wunderground v.1.15,2013-06-26 20:30:00,
2013-06-26 16:37:00,83.8,65.4,29.76,NNW,335,2.0,5.0,54,0.00,,,0.00,Wunderground v.1.15,2013-06-26 20:37:00,
2013-06-26 16:45:00,82.8,65.0,29.76,NNW,330,2.0,6.0,55,0.00,,,0.00,Wunderground v.1.15,2013-06-26 20:45:00,
2013-06-26 16:51:00,82.4,64.6,29.76,NNW,346,2.0,2.0,55,0.00,,,0.00,Wunderground v.1.15,2013-06-26 20:51:00,
2013-06-26 16:57:00,82.2,65.4,29.76,NNW,343,1.0,2.0,57,0.00,,,0.00,Wunderground v.1.15,2013-06-26 20:57:00,
2013-06-26 17:08:00,81.8,65.6,29.76,North,357,1.0,2.0,58,0.00,,,0.00,Wunderground v.1.15,2013-06-26 21:08:00,
2013-06-26 17:17:00,81.2,65.5,29.76,North,0,1.0,2.0,59,0.00,,,0.00,Wunderground v.1.15,2013-06-26 21:17:00,
2013-06-26 17:22:00,81.1,65.9,29.76,North,353,2.0,2.0,60,0.00,,,0.00,Wunderground v.1.15,2013-06-26 21:22:00,
2013-06-26 17:28:00,80.9,66.7,29.76,North,0,2.0,2.0,62,0.00,,,0.00,Wunderground v.1.15,2013-06-26 21:28:00,
2013-06-26 17:37:00,80.7,66.0,29.76,NNW,340,2.0,4.0,61,0.00,,,0.00,Wunderground v.1.15,2013-06-26 21:37:00,
2013-06-26 17:45:00,80.3,66.1,29.76,North,0,2.0,4.0,62,0.00,,,0.00,Wunderground v.1.15,2013-06-26 21:45:00,
2013-06-26 17:51:00,80.3,66.6,29.76,North,357,2.0,5.0,63,0.00,,,0.00,Wunderground v.1.15,2013-06-26 21:51:00,
2013-06-26 17:57:00,80.5,67.2,29.76,North,0,2.0,5.0,64,0.00,,,0.00,Wunderground v.1.15,2013-06-26 21:57:00,
2013-06-26 18:05:00,80.7,67.8,29.76,NE,41,0.0,1.0,65,0.00,,,0.00,Wunderground v.1.15,2013-06-26 22:05:00,
2013-06-26 18:11:00,80.3,67.0,29.76,North,357,1.0,6.0,64,0.00,,,0.00,Wunderground v.1.15,2013-06-26 22:11:00,
2013-06-26 18:17:00,79.4,67.0,29.76,NE,48,3.0,6.0,66,0.00,,,0.00,Wunderground v.1.15,2013-06-26 22:17:00,
2013-06-26 18:21:00,79.2,68.1,29.76,NE,45,2.0,2.0,69,0.00,,,0.00,Wunderground v.1.15,2013-06-26 22:21:00,
2013-06-26 18:27:00,78.8,68.2,29.76,ENE,58,1.0,2.0,70,0.00,,,0.00,Wunderground v.1.15,2013-06-26 22:27:00,
2013-06-26 18:36:00,77.9,67.7,29.76,North,353,1.0,1.0,71,0.00,,,0.00,Wunderground v.1.15,2013-06-26 22:36:00,
2013-06-26 18:42:00,77.7,68.0,29.76,ENE,58,1.0,1.0,72,0.00,,,0.00,Wunderground v.1.15,2013-06-26 22:42:00,
2013-06-26 18:48:00,77.7,68.0,29.76,East,80,1.0,1.0,72,0.00,,,0.00,Wunderground v.1.15,2013-06-26 22:48:00,
2013-06-26 18:55:00,78.1,67.9,29.76,North,359,1.0,3.0,71,0.00,,,0.00,Wunderground v.1.15,2013-06-26 22:55:00,
2013-06-26 19:01:00,78.5,67.5,29.76,North,356,1.0,3.0,69,0.00,,,0.00,Wunderground v.1.15,2013-06-26 23:01:00,
2013-06-26 19:06:00,78.6,67.6,29.76,North,356,1.0,3.0,69,0.00,,,0.00,Wunderground v.1.15,2013-06-26 23:06:00,
2013-06-26 19:12:00,78.8,67.8,29.76,North,357,1.0,1.0,69,0.00,,,0.00,Wunderground v.1.15,2013-06-26 23:12:00,
2013-06-26 19:17:00,78.8,66.9,29.76,North,0,1.0,4.0,67,0.00,,,0.00,Wunderground v.1.15,2013-06-26 23:17:00,
2013-06-26 19:22:00,78.6,67.2,29.76,North,0,1.0,1.0,68,0.00,,,0.00,Wunderground v.1.15,2013-06-26 23:22:00,
2013-06-26 19:30:00,78.6,67.6,29.76,North,0,0.0,0.0,69,0.00,,,0.00,Wunderground v.1.15,2013-06-26 23:30:00,
2013-06-26 19:37:00,78.1,67.1,29.76,North,0,2.0,4.0,69,0.00,,,0.00,Wunderground v.1.15,2013-06-26 23:37:00,
2013-06-26 19:42:00,77.7,67.5,29.76,North,4,2.0,2.0,71,0.00,,,0.00,Wunderground v.1.15,2013-06-26 23:42:00,
2013-06-26 19:48:00,77.4,67.3,29.76,North,0,2.0,4.0,71,0.00,,,0.00,Wunderground v.1.15,2013-06-26 23:48:00,
2013-06-26 19:55:00,77.0,67.3,29.76,North,359,1.0,2.0,72,0.00,,,0.00,Wunderground v.1.15,2013-06-26 23:55:00,
2013-06-26 20:01:00,76.7,67.0,29.76,North,359,1.0,2.0,72,0.00,,,0.00,Wunderground v.1.15,2013-06-27 00:01:00,
2013-06-26 20:06:00,76.5,66.8,29.76,North,359,1.0,2.0,72,0.00,,,0.00,Wunderground v.1.15,2013-06-27 00:06:00,
2013-06-26 20:12:00,76.5,67.2,29.76,North,359,0.0,0.0,73,0.00,,,0.00,Wunderground v.1.15,2013-06-27 00:12:00,
2013-06-26 20:17:00,76.3,67.4,29.76,North,359,0.0,0.0,74,0.00,,,0.00,Wunderground v.1.15,2013-06-27 00:17:00,
2013-06-26 20:27:00,76.0,67.1,29.76,North,352,0.0,0.0,74,0.00,,,0.00,Wunderground v.1.15,2013-06-27 00:27:00,
2013-06-26 20:32:00,75.8,66.9,29.76,North,359,0.0,0.0,74,0.00,,,0.00,Wunderground v.1.15,2013-06-27 00:32:00,
2013-06-26 20:41:00,75.6,67.1,29.76,North,359,0.0,0.0,75,0.00,,,0.00,Wunderground v.1.15,2013-06-27 00:41:00,
2013-06-26 20:47:00,75.4,66.9,29.76,North,350,0.0,0.0,75,0.00,,,0.00,Wunderground v.1.15,2013-06-27 00:47:00,
2013-06-26 20:54:00,75.3,67.2,29.76,North,359,0.0,0.0,76,0.00,,,0.00,Wunderground v.1.15,2013-06-27 00:54:00,
2013-06-26 21:00:00,75.1,67.0,29.76,North,359,0.0,0.0,76,0.00,,,0.00,Wunderground v.1.15,2013-06-27 01:00:00,
2013-06-26 21:07:00,74.9,67.2,29.76,North,359,0.0,0.0,77,0.00,,,0.00,Wunderground v.1.15,2013-06-27 01:07:00,
2013-06-26 21:14:00,74.6,67.3,29.76,North,359,0.0,0.0,78,0.00,,,0.00,Wunderground v.1.15,2013-06-27 01:14:00,
2013-06-26 21:20:00,74.4,67.1,29.76,North,359,0.0,0.0,78,0.00,,,0.00,Wunderground v.1.15,2013-06-27 01:20:00,
2013-06-26 21:26:00,74.2,66.9,29.76,North,359,0.0,0.0,78,0.00,,,0.00,Wunderground v.1.15,2013-06-27 01:26:00,
2013-06-26 21:32:00,74.0,67.1,29.77,North,354,0.0,0.0,79,0.00,,,0.00,Wunderground v.1.15,2013-06-27 01:32:00,
2013-06-26 21:37:00,73.9,67.0,29.77,North,359,0.0,0.0,79,0.00,,,0.00,Wunderground v.1.15,2013-06-27 01:37:00,
2013-06-26 21:42:00,73.9,67.3,29.77,North,354,0.0,0.0,80,0.00,,,0.00,Wunderground v.1.15,2013-06-27 01:42:00,
2013-06-26 21:48:00,73.7,67.1,29.77,North,359,0.0,0.0,80,0.00,,,0.00,Wunderground v.1.15,2013-06-27 01:48:00,
2013-06-26 21:54:00,73.5,66.9,29.77,North,359,0.0,0.0,80,0.00,,,0.00,Wunderground v.1.15,2013-06-27 01:54:00,
2013-06-26 22:00:00,73.5,67.3,29.77,North,359,0.0,0.0,81,0.00,,,0.00,Wunderground v.1.15,2013-06-27 02:00:00,
2013-06-26 22:08:00,73.5,66.6,29.77,North,359,0.0,0.0,79,0.00,,,0.00,Wunderground v.1.15,2013-06-27 02:08:00,
2013-06-26 22:15:00,73.7,66.8,29.76,North,359,0.0,0.0,79,0.00,,,0.00,Wunderground v.1.15,2013-06-27 02:15:00,
2013-06-26 22:21:00,73.5,66.6,29.76,North,359,0.0,0.0,79,0.00,,,0.00,Wunderground v.1.15,2013-06-27 02:21:00,
2013-06-26 22:26:00,73.5,66.6,29.76,North,359,0.0,0.0,79,0.00,,,0.00,Wunderground v.1.15,2013-06-27 02:26:00,
2013-06-26 22:32:00,73.5,66.6,29.76,North,359,0.0,0.0,79,0.00,,,0.00,Wunderground v.1.15,2013-06-27 02:32:00,
2013-06-26 22:37:00,73.3,66.8,29.76,North,349,0.0,0.0,80,0.00,,,0.00,Wunderground v.1.15,2013-06-27 02:37:00,
2013-06-26 22:44:00,73.2,67.0,29.76,North,359,0.0,0.0,81,0.00,,,0.00,Wunderground v.1.15,2013-06-27 02:44:00,
2013-06-26 22:49:00,73.0,67.2,29.76,North,359,0.0,0.0,82,0.00,,,0.00,Wunderground v.1.15,2013-06-27 02:49:00,
2013-06-26 22:57:00,72.8,67.0,29.76,North,359,0.0,0.0,82,0.00,,,0.00,Wunderground v.1.15,2013-06-27 02:57:00,
2013-06-26 23:02:00,72.7,67.2,29.76,North,359,0.0,0.0,83,0.00,,,0.00,Wunderground v.1.15,2013-06-27 03:02:00,
2013-06-26 23:07:00,72.5,67.0,29.76,North,357,0.0,0.0,83,0.00,,,0.00,Wunderground v.1.15,2013-06-27 03:07:00,
2013-06-26 23:15:00,72.1,67.0,29.76,North,356,0.0,0.0,84,0.00,,,0.00,Wunderground v.1.15,2013-06-27 03:15:00,
2013-06-26 23:21:00,72.0,66.9,29.76,North,359,0.0,0.0,84,0.00,,,0.00,Wunderground v.1.15,2013-06-27 03:21:00,
2013-06-26 23:26:00,72.0,66.9,29.76,North,359,0.0,0.0,84,0.00,,,0.00,Wunderground v.1.15,2013-06-27 03:26:00,
2013-06-26 23:32:00,71.8,67.0,29.76,North,357,0.0,0.0,85,0.00,,,0.00,Wunderground v.1.15,2013-06-27 03:32:00,
2013-06-26 23:37:00,71.8,67.4,29.76,North,359,0.0,0.0,86,0.00,,,0.00,Wunderground v.1.15,2013-06-27 03:37:00,
2013-06-26 23:42:00,71.8,67.4,29.76,North,357,0.0,0.0,86,0.00,,,0.00,Wunderground v.1.15,2013-06-27 03:42:00,
2013-06-26 23:47:00,71.8,67.7,29.75,North,359,0.0,0.0,87,0.00,,,0.00,Wunderground v.1.15,2013-06-27 03:47:00,
2013-06-26 23:55:00,71.8,67.7,29.75,North,357,0.0,0.0,87,0.00,,,0.00,Wunderground v.1.15,2013-06-27 03:55:00,